CDC8987 ZSRZ-ZSHC

Flight info

Callsign CDC8987
Flight time 0h 58m
Altitude 30100
Route GUR51J GURIL H28 RUXEL W178 OF/K0980S0950 A470 IGRAT IGRA91
Aircraft A21N/M-SDE2E3FGHIRWXY/LB1

Departure

Time 2026-05-06 07:48
Airport Rizhao Shanzihe Airport (ZSRZ)

Arrival

Time 2026-05-06 08:46
Airport Hangzhou Xiaoshan International Airport (ZSHC)
Time Latitude Longitude Altitude Speed Heading
2026-05-06 07:24 35.40175 119.32185 151 ft 0 kts 212°
2026-05-06 07:38 35.40175 119.32186 152 ft 0 kts 212°
2026-05-06 07:38 35.40187 119.32194 152 ft 2 kts 212°
2026-05-06 07:39 35.40200 119.32204 152 ft 2 kts 212°
2026-05-06 07:39 35.40213 119.32214 151 ft 2 kts 187°
2026-05-06 07:39 35.40228 119.32212 152 ft 2 kts 159°
2026-05-06 07:39 35.40243 119.32197 152 ft 2 kts 119°
2026-05-06 07:40 35.40251 119.32181 152 ft 2 kts 124°
2026-05-06 07:40 35.40258 119.32169 152 ft 0 kts 125°
2026-05-06 07:40 35.40258 119.32168 152 ft 0 kts 124°
2026-05-06 07:44 35.40256 119.32172 152 ft 2 kts 124°
2026-05-06 07:44 35.40248 119.32248 152 ft 17 kts 50°
2026-05-06 07:44 35.40328 119.32319 152 ft 25 kts 33°
2026-05-06 07:44 35.40499 119.32434 151 ft 29 kts 346°
2026-05-06 07:45 35.40617 119.32247 152 ft 27 kts 303°
2026-05-06 07:45 35.40717 119.32062 152 ft 25 kts 302°
2026-05-06 07:45 35.40811 119.31881 152 ft 24 kts 301°
2026-05-06 07:45 35.40936 119.31658 152 ft 23 kts 303°
2026-05-06 07:46 35.41022 119.31498 152 ft 22 kts 303°
2026-05-06 07:46 35.41106 119.31342 152 ft 21 kts 304°
2026-05-06 07:46 35.41132 119.31235 152 ft 18 kts 274°
2026-05-06 07:46 35.41159 119.31171 152 ft 4 kts
2026-05-06 07:47 35.41185 119.31191 152 ft 1 kts 63°
2026-05-06 07:47 35.41182 119.31201 152 ft 0 kts 123°
2026-05-06 07:47 35.41122 119.31312 152 ft 48 kts 124°
2026-05-06 07:47 35.40798 119.31907 152 ft 117 kts 123°
2026-05-06 07:48 35.40239 119.32947 181 ft 169 kts 127°
2026-05-06 07:48 35.39584 119.34161 705 ft 175 kts 126°
2026-05-06 07:48 35.38938 119.35420 1381 ft 179 kts 127°
2026-05-06 07:48 35.38039 119.37135 2237 ft 186 kts 129°
2026-05-06 07:49 35.37548 119.38020 2540 ft 196 kts 129°
2026-05-06 07:49 35.36739 119.39465 3004 ft 213 kts 129°
2026-05-06 07:49 35.35549 119.41593 3565 ft 243 kts 128°
2026-05-06 07:49 35.34911 119.42741 3970 ft 252 kts 128°
2026-05-06 07:50 35.33921 119.44528 4761 ft 257 kts 128°
2026-05-06 07:50 35.32892 119.46377 5368 ft 271 kts 128°
2026-05-06 07:50 35.31823 119.48302 6102 ft 279 kts 127°
2026-05-06 07:50 35.30730 119.50267 6922 ft 284 kts 127°
2026-05-06 07:51 35.29147 119.52830 7858 ft 289 kts 141°
2026-05-06 07:51 35.28035 119.53751 8332 ft 288 kts 158°
2026-05-06 07:51 35.26103 119.54288 9020 ft 287 kts 184°
2026-05-06 07:51 35.24175 119.53780 9635 ft 287 kts 208°
2026-05-06 07:52 35.22570 119.52393 10297 ft 287 kts 224°
2026-05-06 07:52 35.21042 119.50759 10783 ft 300 kts 223°
2026-05-06 07:52 35.19419 119.49037 11101 ft 318 kts 223°
2026-05-06 07:52 35.17693 119.47236 11379 ft 335 kts 222°
2026-05-06 07:53 35.15825 119.45386 11654 ft 353 kts 220°
2026-05-06 07:53 35.13174 119.42847 12028 ft 374 kts 219°
2026-05-06 07:53 35.11082 119.40851 12282 ft 389 kts 220°
2026-05-06 07:53 35.09648 119.39478 12488 ft 398 kts 220°
2026-05-06 07:54 35.06741 119.36634 13167 ft 405 kts 221°
2026-05-06 07:54 35.05300 119.35177 13573 ft 406 kts 221°
2026-05-06 07:54 35.02396 119.32223 14366 ft 409 kts 221°
2026-05-06 07:54 35.00920 119.30721 14740 ft 411 kts 221°
2026-05-06 07:55 34.97986 119.27743 15475 ft 415 kts 221°
2026-05-06 07:55 34.96516 119.26254 15845 ft 416 kts 221°
2026-05-06 07:55 34.94288 119.23998 16450 ft 417 kts 221°
2026-05-06 07:55 34.91323 119.20998 17166 ft 420 kts 221°
2026-05-06 07:56 34.89821 119.19480 17500 ft 422 kts 221°
2026-05-06 07:56 34.87551 119.17189 18009 ft 424 kts 221°
2026-05-06 07:56 34.85275 119.14893 18544 ft 425 kts 222°
2026-05-06 07:56 34.83020 119.12620 19023 ft 427 kts 222°
2026-05-06 07:57 34.80732 119.10316 19509 ft 429 kts 222°
2026-05-06 07:57 34.78419 119.07984 19950 ft 432 kts 222°
2026-05-06 07:57 34.76113 119.05664 20371 ft 435 kts 222°
2026-05-06 07:57 34.72992 119.02528 20970 ft 437 kts 223°
2026-05-06 07:58 34.71446 119.00973 21251 ft 438 kts 223°
2026-05-06 07:58 34.69074 118.98589 21664 ft 440 kts 223°
2026-05-06 07:58 34.66711 118.96218 22112 ft 441 kts 223°
2026-05-06 07:58 34.64357 118.93859 22489 ft 444 kts 223°
2026-05-06 07:59 34.61022 118.90848 22947 ft 452 kts 215°
2026-05-06 07:59 34.59177 118.89682 23173 ft 457 kts 209°
2026-05-06 07:59 34.56162 118.88383 23592 ft 463 kts 200°
2026-05-06 07:59 34.52973 118.87663 24128 ft 465 kts 193°
2026-05-06 08:00 34.49768 118.87122 24613 ft 464 kts 193°
2026-05-06 08:00 34.46614 118.86613 25010 ft 465 kts 192°
2026-05-06 08:00 34.43398 118.86099 25464 ft 464 kts 193°
2026-05-06 08:00 34.40199 118.85588 25912 ft 463 kts 193°
2026-05-06 08:01 34.37004 118.85074 26343 ft 461 kts 193°
2026-05-06 08:01 34.33824 118.84558 26766 ft 461 kts 193°
2026-05-06 08:01 34.30688 118.84051 27162 ft 460 kts 193°
2026-05-06 08:01 34.27513 118.83534 27560 ft 459 kts 193°
2026-05-06 08:02 34.24333 118.83020 27979 ft 458 kts 193°
2026-05-06 08:02 34.21208 118.82513 28374 ft 457 kts 193°
2026-05-06 08:02 34.18033 118.81998 28655 ft 459 kts 193°
2026-05-06 08:02 34.13799 118.81309 29005 ft 461 kts 193°
2026-05-06 08:03 34.11708 118.80970 29184 ft 462 kts 193°
2026-05-06 08:03 34.08490 118.80455 29446 ft 463 kts 193°
2026-05-06 08:03 34.05325 118.79951 29674 ft 465 kts 193°
2026-05-06 08:03 34.02083 118.79436 29874 ft 467 kts 193°
2026-05-06 08:04 33.95612 118.78404 29906 ft 469 kts 193°
2026-05-06 08:04 33.89163 118.77375 29911 ft 468 kts 193°
2026-05-06 08:05 33.82755 118.76355 29913 ft 467 kts 193°
2026-05-06 08:05 33.75211 118.75149 29912 ft 468 kts 193°
2026-05-06 08:06 33.69864 118.74294 29918 ft 468 kts 193°
2026-05-06 08:06 33.63368 118.73251 29913 ft 468 kts 193°
2026-05-06 08:07 33.56943 118.72222 29910 ft 470 kts 193°
2026-05-06 08:07 33.50433 118.71181 29909 ft 469 kts 193°
2026-05-06 08:08 33.43966 118.70150 29916 ft 469 kts 193°
2026-05-06 08:08 33.37496 118.69118 29916 ft 471 kts 193°
2026-05-06 08:09 33.30989 118.68077 29922 ft 471 kts 193°
2026-05-06 08:09 33.24486 118.67039 29925 ft 470 kts 193°
2026-05-06 08:10 33.17995 118.66006 29925 ft 471 kts 193°
2026-05-06 08:10 33.11489 118.64975 29930 ft 472 kts 193°
2026-05-06 08:11 33.05016 118.63944 29927 ft 471 kts 193°
2026-05-06 08:11 32.98451 118.62897 29934 ft 472 kts 193°
2026-05-06 08:12 32.91927 118.61858 30123 ft 475 kts 193°
2026-05-06 08:12 32.88674 118.61343 30486 ft 473 kts 193°
2026-05-06 08:12 32.84307 118.60649 30899 ft 472 kts 193°
2026-05-06 08:13 32.78884 118.59789 30929 ft 472 kts 193°
2026-05-06 08:13 32.72340 118.59000 30933 ft 477 kts 186°
2026-05-06 08:14 32.65716 118.59538 30927 ft 484 kts 175°
2026-05-06 08:14 32.59150 118.61591 30929 ft 492 kts 165°
2026-05-06 08:15 32.52767 118.64478 30927 ft 493 kts 163°
2026-05-06 08:15 32.46349 118.67432 30928 ft 493 kts 163°
2026-05-06 08:16 32.39981 118.70336 30935 ft 492 kts 163°
2026-05-06 08:16 32.33585 118.73235 30937 ft 493 kts 163°
2026-05-06 08:17 32.27155 118.76143 30936 ft 493 kts 163°
2026-05-06 08:17 32.20752 118.79034 30941 ft 493 kts 163°
2026-05-06 08:18 32.14345 118.81921 30949 ft 493 kts 163°
2026-05-06 08:18 32.07967 118.84792 30955 ft 493 kts 163°
2026-05-06 08:19 32.01560 118.87670 30953 ft 493 kts 163°
2026-05-06 08:19 31.95131 118.90555 30965 ft 493 kts 163°
2026-05-06 08:20 31.88594 118.93483 30959 ft 493 kts 163°
2026-05-06 08:20 31.83101 118.95945 30949 ft 491 kts 163°
2026-05-06 08:21 31.77776 118.98329 30940 ft 491 kts 163°
2026-05-06 08:21 31.71393 119.01192 30933 ft 492 kts 163°
2026-05-06 08:22 31.64955 119.03973 30945 ft 492 kts 166°
2026-05-06 08:22 31.58517 119.06755 30955 ft 495 kts 160°
2026-05-06 08:23 31.51431 119.11221 30958 ft 501 kts 150°
2026-05-06 08:23 31.46714 119.15224 30950 ft 504 kts 146°
2026-05-06 08:24 31.41103 119.20141 30944 ft 503 kts 146°
2026-05-06 08:24 31.35528 119.25026 30725 ft 503 kts 146°
2026-05-06 08:25 31.32710 119.27490 30383 ft 501 kts 146°
2026-05-06 08:25 31.29932 119.29916 29805 ft 499 kts 146°
2026-05-06 08:25 31.27165 119.32329 29120 ft 496 kts 146°
2026-05-06 08:25 31.24427 119.34711 28363 ft 497 kts 146°
2026-05-06 08:26 31.21649 119.37124 27548 ft 497 kts 146°
2026-05-06 08:26 31.17958 119.40333 26431 ft 499 kts 146°
2026-05-06 08:26 31.16124 119.41934 25857 ft 500 kts 146°
2026-05-06 08:26 31.13321 119.44385 24950 ft 502 kts 146°
2026-05-06 08:27 31.09596 119.47643 23708 ft 504 kts 146°
2026-05-06 08:27 31.07749 119.49257 23088 ft 505 kts 145°
2026-05-06 08:27 31.04921 119.51724 22310 ft 502 kts 145°
2026-05-06 08:27 31.02183 119.54113 21735 ft 495 kts 145°
2026-05-06 08:28 30.99414 119.56528 21143 ft 489 kts 145°
2026-05-06 08:28 30.96725 119.58868 20538 ft 484 kts 145°
2026-05-06 08:28 30.93962 119.61273 19919 ft 478 kts 145°
2026-05-06 08:28 30.91342 119.63551 19324 ft 473 kts 145°
2026-05-06 08:29 30.87858 119.66576 18510 ft 466 kts 146°
2026-05-06 08:29 30.85262 119.68827 17899 ft 461 kts 146°
2026-05-06 08:29 30.83540 119.70319 17492 ft 458 kts 146°
2026-05-06 08:29 30.81007 119.72514 16876 ft 453 kts 146°
2026-05-06 08:30 30.78515 119.74672 16294 ft 449 kts 145°
2026-05-06 08:30 30.75998 119.76849 15680 ft 445 kts 145°
2026-05-06 08:30 30.73563 119.78955 15061 ft 441 kts 145°
2026-05-06 08:30 30.71110 119.81081 14458 ft 437 kts 144°
2026-05-06 08:31 30.68712 119.83244 13855 ft 433 kts 143°
2026-05-06 08:31 30.66349 119.85399 13262 ft 429 kts 144°
2026-05-06 08:31 30.63132 119.87989 12468 ft 423 kts 149°
2026-05-06 08:31 30.61455 119.89159 12066 ft 419 kts 151°
2026-05-06 08:32 30.58082 119.91322 11262 ft 414 kts 152°
2026-05-06 08:32 30.55584 119.92902 10860 ft 404 kts 153°
2026-05-06 08:32 30.53941 119.93941 10672 ft 397 kts 152°
2026-05-06 08:32 30.51534 119.95463 10307 ft 387 kts 153°
2026-05-06 08:33 30.49220 119.96927 10060 ft 375 kts 152°
2026-05-06 08:33 30.46236 119.98817 9721 ft 361 kts 152°
2026-05-06 08:33 30.44090 120.00175 9643 ft 342 kts 152°
2026-05-06 08:33 30.42727 120.01039 9417 ft 329 kts 152°
2026-05-06 08:34 30.40756 120.02288 8978 ft 315 kts 152°
2026-05-06 08:34 30.36998 120.04666 8329 ft 300 kts 152°
2026-05-06 08:34 30.35206 120.05801 7987 ft 289 kts 152°
2026-05-06 08:35 30.33456 120.06908 7891 ft 282 kts 152°
2026-05-06 08:35 30.31766 120.07975 7847 ft 269 kts 153°
2026-05-06 08:35 30.30187 120.08973 7830 ft 250 kts 153°
2026-05-06 08:35 30.28695 120.09916 7831 ft 239 kts 153°
2026-05-06 08:36 30.27233 120.10838 7917 ft 239 kts 153°
2026-05-06 08:36 30.25334 120.12035 7888 ft 222 kts 153°
2026-05-06 08:36 30.24443 120.12598 7762 ft 215 kts 153°
2026-05-06 08:36 30.23118 120.13319 7470 ft 208 kts 165°
2026-05-06 08:37 30.21728 120.13472 7205 ft 198 kts 186°
2026-05-06 08:37 30.20404 120.13053 6916 ft 197 kts 206°
2026-05-06 08:37 30.19297 120.12143 6627 ft 195 kts 226°
2026-05-06 08:37 30.18513 120.10867 6355 ft 195 kts 240°
2026-05-06 08:38 30.17890 120.09489 6230 ft 193 kts 243°
2026-05-06 08:38 30.17270 120.08113 6195 ft 195 kts 237°
2026-05-06 08:38 30.16301 120.07048 6101 ft 194 kts 209°
2026-05-06 08:38 30.14998 120.06617 5963 ft 196 kts 183°
2026-05-06 08:39 30.13673 120.06895 5694 ft 194 kts 158°
2026-05-06 08:39 30.12474 120.07581 5483 ft 193 kts 153°
2026-05-06 08:39 30.11386 120.08488 5241 ft 193 kts 131°
2026-05-06 08:39 30.10834 120.09877 4953 ft 195 kts 98°
2026-05-06 08:40 30.10939 120.11410 4703 ft 196 kts 78°
2026-05-06 08:40 30.11396 120.12897 4460 ft 196 kts 68°
2026-05-06 08:40 30.12015 120.14304 4221 ft 195 kts 64°
2026-05-06 08:40 30.12661 120.15672 4094 ft 194 kts 64°
2026-05-06 08:41 30.13300 120.17042 4116 ft 195 kts 64°
2026-05-06 08:41 30.13937 120.18443 4031 ft 196 kts 64°
2026-05-06 08:41 30.14765 120.20300 3717 ft 194 kts 65°
2026-05-06 08:41 30.15174 120.21231 3551 ft 193 kts 65°
2026-05-06 08:42 30.15978 120.23062 3213 ft 192 kts 65°
2026-05-06 08:42 30.16379 120.23978 3050 ft 191 kts 66°
2026-05-06 08:42 30.16973 120.25332 2806 ft 190 kts 66°
2026-05-06 08:42 30.17571 120.26691 2564 ft 188 kts 66°
2026-05-06 08:43 30.18152 120.28009 2322 ft 180 kts 66°
2026-05-06 08:43 30.18875 120.29644 2004 ft 162 kts 66°
2026-05-06 08:43 30.19214 120.30411 1899 ft 156 kts 66°
2026-05-06 08:43 30.19694 120.31500 1706 ft 151 kts 67°
2026-05-06 08:44 30.20166 120.32572 1524 ft 150 kts 66°
2026-05-06 08:44 30.20804 120.34017 1277 ft 149 kts 66°
2026-05-06 08:44 30.21112 120.34716 1154 ft 149 kts 65°
2026-05-06 08:44 30.21586 120.35785 964 ft 149 kts 65°
2026-05-06 08:45 30.22057 120.36848 770 ft 148 kts 65°
2026-05-06 08:45 30.22527 120.37910 580 ft 148 kts 65°
2026-05-06 08:45 30.23146 120.39326 339 ft 147 kts 65°
2026-05-06 08:45 30.23611 120.40363 147 ft 143 kts 64°
2026-05-06 08:46 30.23907 120.41024 39 ft 138 kts 64°
2026-05-06 08:46 30.24295 120.41902 29 ft 99 kts 63°
2026-05-06 08:46 30.24530 120.42441 29 ft 49 kts 67°
2026-05-06 08:46 30.24558 120.42850 29 ft 28 kts 90°
2026-05-06 08:47 30.24515 120.42955 29 ft 21 kts 149°
2026-05-06 08:47 30.24401 120.42998 29 ft 13 kts 212°
2026-05-06 08:47 30.24363 120.42924 28 ft 11 kts 245°
2026-05-06 08:47 30.24300 120.42837 29 ft 11 kts 179°
2026-05-06 08:48 30.24250 120.42860 29 ft 11 kts 153°
2026-05-06 08:48 30.24188 120.42899 29 ft 3 kts 128°
2026-05-06 08:48 30.24194 120.42933 29 ft 4 kts 65°
2026-05-06 08:48 30.24203 120.42953 29 ft 0 kts 62°
2026-05-06 08:49 30.24205 120.42957 29 ft 0 kts 62°
2026-05-06 08:49 30.24205 120.42958 29 ft 0 kts 62°